COSMOS 1275 DEB, 12725

Orbit data source: Space-Track

COSMOS 1275 DEB, 12725 is space debris in LEO originally from a launch on Thu, 04 Jun 1981 UTC launched from the Plesetsk Missile And Space Complex (PKMTR). Debris objects in space refer to the collection of defunct objects orbiting the Earth. Examples of debris include non-operational satellites, rocket bodies, and fragments generated from explosions, collisions, or faulty payload assembly.

Loading next visibility...
Identifier
12725, 1981-053BS
Orbit
LEO
Country
Flag of CISCIS
Related business
Manufacturer
Unknown
Mission
Spacecraft
Bus & Motor
Unknown
Mass
Unknown
Launch date (UTC)
1981-06-04 (45 years ago)
Launch vehicle
Unknown
Launch site
Plesetsk Missile And Space Complex (PKMTR)
Object type
Payload
Rocket body
Debris
Shape & HBR
Unknown shape, 0.1 m
Radar Cross Section
Medium (>0.1 m² and <1 m²)

Expand to show TLE details & history
Last TLE update: 19 hours ago

TLE from 19 hours ago
0 COSMOS 1275 DEB
1 12725U 81053BS  26254.51950214  .00000909  00000-0  75384-3 0  9998
2 12725  83.1340 270.9143 0092704 120.4456   4.9939 13.85763438253527
Epoch: 2026-09-11T12:28Z
TLE epoch observation values (Epoch: 2026-09-11T12:28:04.984Z)
Latitude
53.99465°
Longitude
-96.13531°
Altitude
884.77 km
Speed
7.449 km/s
True Right ascension
05h 25m 42s
True Declination
53° 50' 02"
Sunlit
Object was in daylight at epoch
Visualization orbit readout
Latitude
Unknown
Longitude
Unknown
Altitude
Unknown
Speed
Unknown
Apparent Right ascension
Unknown
Apparent Declination
Unknown
Sunlit
N/A
Visualization observer readout
Local Sidereal Time
23:49:18
Azimuth
Unknown
Elevation
Unknown
Doppler factor
Unknown
Orbital elements
Apogee altitude
1,008.49 km
Perigee altitude
872.794 km
Semi-major axis
7,318.779 km
Eccentricity
0.00927
Inclination
83.134°
RAAN
270.9143°
Arg. of periapsis
120.4456°
True anomaly
5.08745°
Mean anomaly
4.9939°
Eccentric anomaly
5.04057°
Mean motion
3.46645 °/min
Orbital period
103.85 mins
BSTAR
0.00075384
Loading maneuver chart data...
Computing Atmospheric mass density...
Loading historical data...
Loading historical data...
Loading historical data...
Loading historical data...
Loading historical data...
Loading historical data...
Loading historical data...

Documentation

Showing up to 5 results
|